{"data":{"norad_id":67967,"epoch":"2026-05-25T00:14:47.404896Z","epoch_age_seconds":70790,"freshness":"FRESH","line1":"1 67967U 26038G   26145.01027089  .00018414  00000+0  57121-3 0  9995","line2":"2 67967  97.2841 155.0090 0001744  92.0797 268.0645 15.33449747 14933","mean_motion":15.33449747,"eccentricity":0.0001744,"inclination_deg":97.2841,"raan_deg":155.009,"arg_perigee_deg":92.0797,"mean_anomaly_deg":268.0645,"bstar":0.00057121,"rev_number":1493,"period_min":93.905913957544,"perigee_km":464.33551542311,"apogee_km":466.72258614162,"semimajor_km":6843.6660507824,"source":"CELESTRAK","updated_at":"2026-05-25T13:38:21.773994Z"}}